W9PEM-13 Weather Reports


time (UTC)temp
C
wind
direction
speed
KPH
gust
KPH
rain 1hr
cm
rain 24hr
cm
rain mn
cm
humidity
%
barometer
mb
20260906145259 22 89 6.4 9.7 0.00 0.00 0.00 75 1020.4
20260906144258 22 70 3.2 6.4 0.00 0.00 0.00 76 1020.4
20260906143306 22 83 6.4 11.3 0.00 0.00 0.00 76 1020.3
20260906142246 22 82 3.2 6.4 0.00 0.00 0.00 77 1020.4
20260906141245 21 92 8.0 12.9 0.00 0.00 0.00 77 1020.4
20260906140245 21 80 6.4 8.0 0.00 0.00 0.00 79 1020.3
20260906135244 21 50 4.8 8.0 0.00 0.00 0.00 80 1020.3
20260906134244 20 0 3.2 4.8 0.00 0.00 0.00 83 1020.2
20260906133244 20 76 3.2 4.8 0.00 0.00 0.00 85 1020.3
20260906132243 20 103 3.2 6.4 0.00 0.00 0.00 86 1020.2
20260906131250 21 84 1.6 3.2 0.00 0.00 0.00 86 1020.2
20260906130242 20 80 0.0 1.6 0.00 0.00 0.00 92 1020.1
20260906125241 20 0 0.0 1.6 0.00 0.00 0.00 99 1020.0
20260906124241 19 0 0.0 1.6 0.00 0.00 0.00 100 1019.6
20260906123240 18 0 0.0 0.0 0.00 0.00 0.00 100 1019.6
20260906122319 17 0 0.0 0.0 0.00 0.00 0.00 100 1019.5
20260906122239 17 0 0.0 0.0 0.00 0.00 0.00 100 1019.5
20260906121239 16 293 0.0 1.6 0.00 0.00 0.00 100 1019.5
20260906120239 15 61 0.0 0.0 0.00 0.00 0.00 100 1019.2
20260906115239 14 0 0.0 1.6 0.00 0.00 0.00 100 1019.3
20260906114237 14 0 0.0 0.0 0.00 0.00 0.00 100 1019.2
20260906113237 14 0 0.0 1.6 0.00 0.00 0.00 100 1018.9
20260906112236 14 0 0.0 0.0 0.00 0.00 0.00 100 1018.8
20260906111236 14 0 0.0 0.0 0.00 0.00 0.00 100 1018.7
20260906110235 15 0 0.0 1.6 0.00 0.00 0.00 100 1018.6
20260906105317 15 0 0.0 0.0 0.00 0.00 0.00 100 1018.7
20260906105235 15 0 0.0 0.0 0.00 0.00 0.00 100 1018.7
20260906104235 15 0 0.0 0.0 0.00 0.00 0.00 100 1018.6
20260906103234 15 0 0.0 0.0 0.00 0.00 0.00 100 1018.6
20260906102335 15 0 0.0 0.0 0.00 0.00 0.00 100 1018.7
20260906102233 15 0 0.0 0.0 0.00 0.00 0.00 100 1018.7
20260906101309 15 0 0.0 0.0 0.00 0.00 0.00 100 1018.6
20260906101233 15 0 0.0 0.0 0.00 0.00 0.00 100 1018.6
20260906100232 15 0 0.0 0.0 0.00 0.00 0.00 100 1018.5
20260906095347 15 0 0.0 1.6 0.00 0.00 0.00 100 1018.4
20260906095231 15 0 0.0 1.6 0.00 0.00 0.00 100 1018.4
20260906094231 15 0 0.0 0.0 0.00 0.00 0.00 100 1018.4
20260906093313 15 0 0.0 0.0 0.00 0.00 0.00 100 1018.4
20260906093231 15 0 0.0 0.0 0.00 0.00 0.00 100 1018.4
20260906092329 15 0 0.0 1.6 0.00 0.00 0.00 100 1018.3
20260906092230 15 0 0.0 1.6 0.00 0.00 0.00 100 1018.3
20260906091230 15 0 0.0 0.0 0.00 0.00 0.00 100 1018.4
20260906090411 15 0 0.0 0.0 0.00 0.00 0.00 100 1018.2
20260906090229 15 0 0.0 0.0 0.00 0.00 0.00 100 1018.2
20260906085411 15 0 0.0 0.0 0.00 0.00 0.00 100 1018.2
20260906085229 15 0 0.0 0.0 0.00 0.00 0.00 100 1018.2
20260906084229 15 0 0.0 0.0 0.00 0.00 0.00 100 1018.3
20260906083301 15 0 0.0 0.0 0.00 0.00 0.00 100 1018.3
20260906083228 15 0 0.0 0.0 0.00 0.00 0.00 100 1018.3
20260906082227 16 0 0.0 0.0 0.00 0.00 0.00 100 1018.4
20260906081226 16 0 0.0 0.0 0.00 0.00 0.00 100 1018.2
20260906080258 16 0 0.0 0.0 0.00 0.00 0.00 100 1018.2
20260906080226 16 0 0.0 0.0 0.00 0.00 0.00 100 1018.2
20260906075324 16 0 0.0 0.0 0.00 0.00 0.00 100 1018.1
20260906075225 16 0 0.0 0.0 0.00 0.00 0.00 100 1018.1
20260906074225 15 0 0.0 0.0 0.00 0.00 0.00 100 1018.2
20260906073225 15 0 0.0 0.0 0.00 0.00 0.00 100 1018.1
20260906072224 15 0 0.0 0.0 0.00 0.00 0.00 100 1017.8
20260906071312 15 0 0.0 0.0 0.00 0.00 0.00 100 1017.8
20260906071224 15 0 0.0 0.0 0.00 0.00 0.00 100 1017.8
20260906070223 16 0 0.0 1.6 0.00 0.00 0.00 100 1017.9
20260906065329 16 0 0.0 0.0 0.00 0.00 0.00 100 1017.9
20260906065222 16 0 0.0 0.0 0.00 0.00 0.00 100 1017.9
20260906064222 16 0 0.0 1.6 0.00 0.00 0.00 100 1018.0
20260906063257 16 0 0.0 1.6 0.00 0.00 0.00 100 1018.0
20260906062221 16 0 0.0 0.0 0.00 0.00 0.00 100 1018.0
20260906061221 15 0 0.0 3.2 0.00 0.00 0.00 100 1018.0
20260906060219 16 0 0.0 0.0 0.00 0.00 0.00 100 1017.8
20260906055219 16 0 0.0 1.6 0.00 0.00 0.00 100 1017.6
20260906054243 16 0 0.0 1.6 0.00 0.00 0.00 100 1017.7
20260906053218 16 0 0.0 0.0 0.00 0.00 0.00 100 1017.7
20260906052318 16 0 0.0 0.0 0.00 0.00 0.00 100 1017.7
20260906052218 16 0 0.0 0.0 0.00 0.00 0.00 100 1017.7
20260906051217 16 0 0.0 0.0 0.00 0.00 0.00 100 1017.7
20260906050308 16 0 0.0 0.0 0.00 0.00 0.00 100 1017.7
20260906050217 16 0 0.0 0.0 0.00 0.00 0.00 100 1017.7
20260906045247 16 0 0.0 0.0 0.00 0.00 0.00 100 1017.6
20260906045216 16 0 0.0 0.0 0.00 0.00 0.00 100 1017.6
20260906044215 16 0 0.0 0.0 0.00 0.00 0.00 100 1017.7
20260906043247 16 0 0.0 0.0 0.00 0.00 0.00 99 1017.6
20260906043215 16 0 0.0 0.0 0.00 0.00 0.00 99 1017.6
20260906042214 16 0 0.0 1.6 0.00 0.00 0.00 99 1017.5
20260906041214 16 0 0.0 0.0 0.00 0.00 0.00 99 1017.4
20260906040247 16 0 0.0 0.0 0.00 0.00 0.00 99 1017.3
20260906040213 16 0 0.0 0.0 0.00 0.00 0.00 99 1017.3
20260906035250 16 0 0.0 0.0 0.00 0.00 0.00 99 1017.3
20260906035213 16 0 0.0 0.0 0.00 0.00 0.00 99 1017.3
20260906034213 16 0 0.0 1.6 0.00 0.00 0.00 99 1017.4
20260906033212 16 0 0.0 1.6 0.00 0.00 0.00 99 1017.4
20260906032247 16 80 0.0 1.6 0.00 0.00 0.00 99 1017.4
20260906032211 16 80 0.0 1.6 0.00 0.00 0.00 99 1017.4
20260906031400 16 81 0.0 3.2 0.00 0.00 0.00 99 1017.4
20260906031251 16 81 0.0 3.2 0.00 0.00 0.00 99 1017.4
20260906031211 16 81 0.0 3.2 0.00 0.00 0.00 99 1017.4
20260906030212 16 87 0.0 1.6 0.00 0.00 0.00 99 1017.5
20260906025210 16 0 0.0 1.6 0.00 0.00 0.00 99 1017.5
20260906024224 16 0 0.0 0.0 0.00 0.00 0.00 99 1017.4
20260906023245 16 0 0.0 1.6 0.00 0.00 0.00 99 1017.4
20260906023209 16 0 0.0 1.6 0.00 0.00 0.00 99 1017.4
20260906022209 16 65 1.6 3.2 0.00 0.00 0.00 99 1017.3
20260906021312 16 0 0.0 0.0 0.00 0.00 0.00 98 1017.3
20260906021208 16 0 0.0 0.0 0.00 0.00 0.00 98 1017.3
20260906020207 16 0 0.0 0.0 0.00 0.00 0.00 98 1017.3
20260906015206 16 0 0.0 0.0 0.00 0.00 0.00 98 1017.2
20260906014206 17 0 0.0 0.0 0.00 0.00 0.00 97 1017.0
20260906013206 17 0 0.0 0.0 0.00 0.00 0.00 97 1017.0
20260906012205 17 0 0.0 0.0 0.00 0.00 0.00 96 1016.9
20260906011247 17 0 0.0 0.0 0.00 0.00 0.00 95 1017.0
20260906011206 17 0 0.0 0.0 0.00 0.00 0.00 95 1017.0
20260906010238 18 0 0.0 0.0 0.00 0.00 0.00 94 1016.9
20260906010207 18 0 0.0 0.0 0.00 0.00 0.00 94 1016.9
20260906005204 18 0 0.0 0.0 0.00 0.00 0.00 92 1017.0
20260906004203 19 0 0.0 0.0 0.00 0.00 0.00 91 1017.0
20260906003202 19 0 0.0 0.0 0.00 0.00 0.00 89 1017.1
20260906001248 20 79 0.0 1.6 0.00 0.00 0.00 85 1017.1
20260906001201 20 79 0.0 1.6 0.00 0.00 0.00 85 1017.1
20260906000201 20 64 4.8 9.7 0.00 0.00 0.00 85 1017.1
20260905235250 21 60 3.2 4.8 0.00 0.00 0.00 89 1017.2
20260905235200 21 60 3.2 4.8 0.00 0.00 0.00 89 1017.2
20260905234250 21 97 0.0 0.0 0.00 0.00 0.00 90 1017.2
20260905234200 21 97 0.0 0.0 0.00 0.00 0.00 90 1017.2
20260905233159 21 0 1.6 3.2 0.00 0.00 0.00 89 1017.0
20260905232255 21 61 1.6 3.2 0.00 0.00 0.00 90 1017.0
20260905231247 21 0 0.0 1.6 0.00 0.00 0.00 90 1017.0
20260905231158 21 0 0.0 1.6 0.00 0.00 0.00 90 1017.0
20260905230242 21 63 1.6 3.2 0.00 0.00 0.00 90 1017.1
20260905230158 21 63 1.6 3.2 0.00 0.00 0.00 90 1017.1
20260905225356 21 29 3.2 4.8 0.00 0.00 0.00 90 1017.0
20260905225157 21 29 3.2 4.8 0.00 0.00 0.00 90 1017.0
20260905224245 21 96 1.6 3.2 0.00 0.00 0.00 91 1016.8
20260905224156 21 96 1.6 3.2 0.00 0.00 0.00 91 1016.8
20260905223156 21 60 4.8 9.7 0.00 0.00 0.00 91 1016.8
20260905222227 21 56 3.2 4.8 0.00 0.00 0.00 92 1016.8
20260905221247 21 0 3.2 4.8 0.00 0.00 0.00 92 1016.8
20260905221155 21 0 3.2 4.8 0.00 0.00 0.00 92 1016.8
20260905220234 21 63 3.2 4.8 0.00 0.00 0.00 93 1016.8
20260905220154 21 63 3.2 4.8 0.00 0.00 0.00 93 1016.8
20260905215351 21 61 3.2 4.8 0.00 0.00 0.00 92 1016.6
20260905215154 21 61 3.2 4.8 0.00 0.00 0.00 92 1016.6
20260905214243 21 122 3.2 6.4 0.00 0.00 0.00 92 1016.5
20260905214154 21 122 3.2 6.4 0.00 0.00 0.00 92 1016.5
20260905213154 21 78 4.8 8.0 0.00 0.00 0.00 92 1016.6
20260905212247 21 51 4.8 8.0 0.00 0.00 0.00 92 1016.7
20260905212152 21 51 4.8 8.0 0.00 0.00 0.00 92 1016.7
20260905211225 21 61 4.8 8.0 0.00 0.00 0.00 92 1016.7
20260905211152 21 61 4.8 8.0 0.00 0.00 0.00 92 1016.7
20260905210244 21 69 4.8 6.4 0.00 0.00 0.00 93 1016.7
20260905210151 21 69 4.8 6.4 0.00 0.00 0.00 93 1016.7
20260905205224 21 93 4.8 8.0 0.00 0.00 0.00 92 1016.7
20260905205151 21 93 4.8 8.0 0.00 0.00 0.00 92 1016.7
20260905204239 21 63 3.2 6.4 0.00 0.00 0.00 92 1016.6
20260905204151 21 63 3.2 6.4 0.00 0.00 0.00 92 1016.6
20260905203226 21 62 3.2 6.4 0.00 0.00 0.00 91 1016.4
20260905203150 21 62 3.2 6.4 0.00 0.00 0.00 91 1016.4
20260905202349 21 66 4.8 4.8 0.00 0.00 0.00 91 1016.6
20260905202149 21 66 4.8 4.8 0.00 0.00 0.00 91 1016.6
20260905201247 21 103 3.2 8.0 0.00 0.00 0.00 90 1016.5
20260905201149 21 103 3.2 8.0 0.00 0.00 0.00 90 1016.5
20260905200225 22 51 4.8 8.0 0.00 0.00 0.00 90 1016.4
20260905200148 22 51 4.8 8.0 0.00 0.00 0.00 90 1016.4
20260905195247 22 65 4.8 9.7 0.00 0.00 0.00 90 1016.5
20260905195148 22 65 4.8 9.7 0.00 0.00 0.00 90 1016.5
20260905194233 22 67 3.2 4.8 0.00 0.00 0.00 90 1016.5
20260905194147 22 67 3.2 4.8 0.00 0.00 0.00 90 1016.5
20260905193222 22 71 1.6 4.8 0.00 0.00 0.00 90 1016.6
20260905193148 22 71 1.6 4.8 0.00 0.00 0.00 90 1016.6
20260905192221 22 49 4.8 8.0 0.00 0.00 0.00 90 1016.6
20260905192146 22 49 4.8 8.0 0.00 0.00 0.00 90 1016.6
20260905191146 22 80 4.8 6.4 0.00 0.00 0.00 90 1016.5
20260905190237 21 65 1.6 4.8 0.00 0.00 0.00 91 1016.5
20260905190145 21 65 1.6 4.8 0.00 0.00 0.00 91 1016.5
20260905185217 21 63 6.4 9.7 0.00 0.00 0.00 91 1016.6
20260905185146 21 63 6.4 9.7 0.00 0.00 0.00 91 1016.6
20260905184225 22 60 4.8 6.4 0.00 0.00 0.00 90 1016.6
20260905184144 22 60 4.8 6.4 0.00 0.00 0.00 90 1016.6
20260905183225 22 93 3.2 6.4 0.00 0.00 0.00 90 1016.6
20260905183144 22 93 3.2 6.4 0.00 0.00 0.00 90 1016.6
20260905182246 22 70 4.8 6.4 0.00 0.00 0.00 89 1016.6
20260905182143 22 70 4.8 6.4 0.00 0.00 0.00 89 1016.6
20260905181142 22 58 4.8 8.0 0.00 0.00 0.00 90 1016.6
20260905180328 22 60 4.8 6.4 0.00 0.00 0.00 90 1016.5
20260905180142 22 60 4.8 6.4 0.00 0.00 0.00 90 1016.5
20260905175142 22 88 6.4 9.7 0.00 0.00 0.00 89 1016.5
20260905174337 22 72 6.4 6.4 0.00 0.00 0.00 91 1016.4
20260905174141 22 72 6.4 6.4 0.00 0.00 0.00 91 1016.4
20260905173141 23 72 3.2 6.4 0.00 0.00 0.00 89 1016.3
20260905173052 23 72 3.2 6.4 0.00 0.00 0.00 89 1016.3
20260905172107 23 59 3.2 6.4 0.00 0.00 0.00 86 1016.3
20260905171136 23 85 4.8 9.7 0.00 0.00 0.00 87 1016.3
20260905171051 23 85 4.8 9.7 0.00 0.00 0.00 87 1016.3
20260905170150 23 50 1.6 3.2 0.00 0.00 0.00 86 1016.3
20260905170051 23 50 1.6 3.2 0.00 0.00 0.00 86 1016.3
20260905165139 23 55 1.6 4.8 0.00 0.00 0.00 86 1016.3
20260905165052 23 55 1.6 4.8 0.00 0.00 0.00 86 1016.3
20260905164050 23 0 1.6 4.8 0.00 0.00 0.00 86 1016.3
20260905163209 23 135 0.0 4.8 0.00 0.00 0.00 85 1016.3
20260905163049 23 135 0.0 4.8 0.00 0.00 0.00 85 1016.3
20260905162112 23 255 3.2 8.0 0.00 0.00 0.00 85 1016.3
20260905161135 23 54 1.6 3.2 0.00 0.00 0.00 87 1016.4
20260905161048 23 54 1.6 3.2 0.00 0.00 0.00 87 1016.4
20260905160143 23 99 1.6 3.2 0.00 0.00 0.00 87 1016.3
20260905160048 23 99 1.6 3.2 0.00 0.00 0.00 87 1016.3
20260905155136 23 101 1.6 3.2 0.00 0.00 0.00 87 1016.2
20260905155047 23 101 1.6 3.2 0.00 0.00 0.00 87 1016.2
20260905154152 23 66 1.6 4.8 0.00 0.00 0.00 89 1016.1
20260905154047 23 66 1.6 4.8 0.00 0.00 0.00 89 1016.1
20260905153046 22 0 1.6 4.8 0.00 0.00 0.00 91 1016.2
20260905152148 22 59 4.8 8.0 0.00 0.00 0.00 91 1016.0
20260905152046 22 59 4.8 8.0 0.00 0.00 0.00 91 1016.0
20260905151218 22 96 3.2 6.4 0.00 0.03 0.00 91 1016.0
20260905151045 22 96 3.2 6.4 0.00 0.03 0.00 91 1016.0
20260905150154 22 86 1.6 4.8 0.00 0.03 0.00 92 1016.0
20260905150044 22 86 1.6 4.8 0.00 0.03 0.00 92 1016.0